EA3KZ-1 Weather Reports


time (UTC)temp
C
wind
direction
speed
KPH
gust
KPH
rain 1hr
cm
rain 24hr
cm
rain mn
cm
humidity
%
barometer
mb
20260905005525 26 221 0.0 6.4 0.00 0.00 0.00 54 1016.9
20260905004522 26 224 3.2 6.4 0.00 0.00 0.00 53 1016.9
20260905003519 26 215 6.4 11.3 0.00 0.00 0.00 54 1017.0
20260905002517 25 230 6.4 12.9 0.00 0.00 0.00 56 1017.1
20260905001614 26 222 4.8 9.7 0.00 0.00 0.00 56 1017.1
20260905000612 25 180 3.2 3.2 0.00 0.00 0.00 57 1017.2
20260904235609 25 230 8.0 12.9 0.00 0.00 0.00 58 1017.2
20260904234607 25 218 1.6 6.4 0.00 0.00 0.00 62 1017.3
20260904233604 25 235 3.2 6.4 0.00 0.00 0.00 61 1017.4
20260904232601 25 180 3.2 6.4 0.00 0.00 0.00 61 1017.4
20260904231559 25 176 3.2 6.4 0.00 0.00 0.00 61 1017.4
20260904230556 25 230 4.8 9.7 0.00 0.00 0.00 63 1017.5
20260904225554 25 221 3.2 6.4 0.00 0.00 0.00 64 1017.5
20260904224551 25 223 3.2 9.7 0.00 0.00 0.00 62 1017.5
20260904223548 25 210 4.8 9.7 0.00 0.00 0.00 64 1017.7
20260904222546 25 218 8.0 11.3 0.00 0.00 0.00 67 1017.4
20260904221543 25 225 8.0 12.9 0.00 0.00 0.00 68 1017.5
20260904220541 25 194 6.4 11.3 0.00 0.00 0.00 69 1017.6
20260904215538 25 178 3.2 6.4 0.00 0.00 0.00 70 1017.6
20260904214535 25 214 4.8 11.3 0.00 0.00 0.00 72 1017.5
20260904213533 25 183 3.2 6.4 0.00 0.00 0.00 74 1017.5
20260904212530 26 175 3.2 6.4 0.00 0.00 0.00 73 1017.6
20260904211528 26 234 4.8 6.4 0.00 0.00 0.00 71 1017.7
20260904210525 26 244 4.8 6.4 0.00 0.00 0.00 72 1017.7
20260904205522 26 228 4.8 6.4 0.00 0.00 0.00 73 1017.8
20260904204520 26 233 6.4 6.4 0.00 0.00 0.00 74 1017.8
20260904203517 26 221 4.8 6.4 0.00 0.00 0.00 75 1017.7
20260904202515 26 237 4.8 6.4 0.00 0.00 0.00 75 1017.8
20260904201612 26 253 1.6 3.2 0.00 0.00 0.00 74 1017.8
20260904200610 26 248 3.2 3.2 0.00 0.00 0.00 74 1017.7
20260904195607 27 239 1.6 6.4 0.00 0.00 0.00 74 1017.8
20260904194605 27 0.0 3.2 0.00 0.00 0.00 75 1017.6
20260904193602 27 315 0.0 3.2 0.00 0.00 0.00 75 1017.6
20260904192559 27 322 1.6 3.2 0.00 0.00 0.00 76 1017.6
20260904191556 26 338 0.0 3.2 0.00 0.00 0.00 78 1017.5
20260904190554 26 310 1.6 3.2 0.00 0.00 0.00 79 1017.5
20260904185551 27 306 1.6 3.2 0.00 0.00 0.00 79 1017.3
20260904184549 27 313 4.8 6.4 0.00 0.00 0.00 78 1017.0
20260904183546 27 300 1.6 3.2 0.00 0.00 0.00 78 1017.0
20260904182544 27 62 1.6 3.2 0.00 0.00 0.00 77 1016.9
20260904181542 27 20 3.2 6.4 0.00 0.00 0.00 76 1016.8
20260904180538 27 348 3.2 9.7 0.00 0.00 0.00 74 1016.7
20260904175536 28 10 4.8 9.7 0.00 0.00 0.00 73 1016.7
20260904174533 28 118 3.2 6.4 0.00 0.00 0.00 70 1016.4
20260904173531 28 29 3.2 9.7 0.00 0.00 0.00 68 1016.3
20260904172528 28 43 4.8 11.3 0.00 0.00 0.00 68 1016.3
20260904171525 28 30 8.0 17.7 0.00 0.00 0.00 69 1016.3
20260904170523 29 17 9.7 17.7 0.00 0.00 0.00 68 1016.1
20260904165520 29 13 8.0 17.7 0.00 0.00 0.00 68 1016.0
20260904164517 30 358 9.7 17.7 0.00 0.00 0.00 68 1016.0
20260904163515 30 6 11.3 22.5 0.00 0.00 0.00 69 1015.9
20260904162614 30 13 9.7 17.7 0.00 0.00 0.00 67 1015.9
20260904161610 31 50 8.0 14.5 0.00 0.00 0.00 64 1015.9
20260904160607 31 10 8.0 17.7 0.00 0.00 0.00 64 1016.0
20260904155605 31 53 8.0 17.7 0.00 0.00 0.00 63 1015.8
20260904154602 31 17 8.0 14.5 0.00 0.00 0.00 65 1015.9
20260904153559 31 17 9.7 17.7 0.00 0.00 0.00 65 1015.8
20260904152557 31 2 9.7 17.7 0.00 0.00 0.00 65 1015.9
20260904151554 31 324 12.9 22.5 0.00 0.00 0.00 65 1016.0
20260904150552 31 32 11.3 17.7 0.00 0.00 0.00 62 1015.8
20260904145549 31 349 14.5 24.1 0.00 0.00 0.00 60 1015.8
20260904144547 32 28 14.5 25.7 0.00 0.00 0.00 56 1015.5
20260904143544 33 18 14.5 24.1 0.00 0.00 0.00 50 1015.7
20260904142541 34 8 9.7 20.9 0.00 0.00 0.00 48 1015.4
20260904141539 35 81 6.4 12.9 0.00 0.00 0.00 44 1015.7
20260904140536 35 143 4.8 14.5 0.00 0.00 0.00 44 1015.6
20260904135533 35 130 4.8 14.5 0.00 0.00 0.00 44 1015.5
20260904134531 36 75 4.8 11.3 0.00 0.00 0.00 43 1015.7
20260904133528 35 142 6.4 17.7 0.00 0.00 0.00 46 1015.6
20260904132526 35 138 6.4 17.7 0.00 0.00 0.00 46 1015.6
20260904131523 36 128 4.8 14.5 0.00 0.00 0.00 46 1015.7
20260904130521 36 137 4.8 9.7 0.00 0.00 0.00 44 1015.7
20260904125518 36 167 4.8 11.3 0.00 0.00 0.00 42 1015.8
20260904124515 36 114 4.8 12.9 0.00 0.00 0.00 42 1015.9
20260904123613 36 136 3.2 11.3 0.00 0.00 0.00 41 1015.8
20260904122610 36 166 3.2 9.7 0.00 0.00 0.00 40 1016.0
20260904121608 36 117 6.4 12.9 0.00 0.00 0.00 39 1015.9
20260904120605 35 59 4.8 12.9 0.00 0.00 0.00 41 1016.1
20260904115603 35 121 6.4 17.7 0.00 0.00 0.00 41 1016.2
20260904114600 35 111 6.4 14.5 0.00 0.00 0.00 40 1016.4
20260904113557 35 135 6.4 11.3 0.00 0.00 0.00 40 1016.5
20260904112555 34 102 4.8 11.3 0.00 0.00 0.00 43 1016.6
20260904111552 34 110 1.6 11.3 0.00 0.00 0.00 42 1016.6
20260904110550 34 99 3.2 9.7 0.00 0.00 0.00 44 1016.7
20260904105547 33 87 3.2 9.7 0.00 0.00 0.00 47 1016.8
20260904104544 33 345 1.6 6.4 0.00 0.00 0.00 49 1016.9
20260904103542 33 113 1.6 6.4 0.00 0.00 0.00 49 1017.0
20260904102539 33 98 3.2 6.4 0.00 0.00 0.00 50 1017.1
20260904101537 32 146 3.2 6.4 0.00 0.00 0.00 53 1017.2
20260904100534 32 135 1.6 6.4 0.00 0.00 0.00 53 1017.3
20260904095531 31 117 1.6 6.4 0.00 0.00 0.00 54 1017.2
20260904094529 31 126 3.2 6.4 0.00 0.00 0.00 55 1017.3
20260904093526 31 9 1.6 6.4 0.00 0.00 0.00 55 1017.3
20260904092524 31 131 1.6 6.4 0.00 0.00 0.00 55 1017.3
20260904091521 30 198 0.0 3.2 0.00 0.00 0.00 56 1017.3
20260904090518 30 0 1.6 6.4 0.00 0.00 0.00 56 1017.2
20260904085516 30 90 0.0 3.2 0.00 0.00 0.00 56 1017.2
20260904084614 30 293 0.0 3.2 0.00 0.00 0.00 59 1017.2
20260904083611 28 112 1.6 3.2 0.00 0.00 0.00 60 1017.1
20260904082608 29 107 0.0 3.2 0.00 0.00 0.00 60 1017.0
20260904081606 28 0.0 3.2 0.00 0.00 0.00 60 1017.1
20260904080603 28 113 0.0 3.2 0.00 0.00 0.00 60 1017.0
20260904075601 28 0.0 0.0 0.00 0.00 0.00 62 1016.9
20260904074558 27 0.0 3.2 0.00 0.00 0.00 64 1016.9
20260904073555 27 113 0.0 3.2 0.00 0.00 0.00 66 1016.8
20260904072553 26 107 0.0 6.4 0.00 0.00 0.00 68 1016.8
20260904071550 25 109 1.6 3.2 0.00 0.00 0.00 69 1016.9
20260904070548 25 144 1.6 3.2 0.00 0.00 0.00 70 1016.8
20260904065545 25 0.0 3.2 0.00 0.00 0.00 69 1016.9
20260904064542 26 0.0 0.0 0.00 0.00 0.00 67 1016.8
20260904063540 25 50 1.6 3.2 0.00 0.00 0.00 69 1016.7
20260904062537 25 113 0.0 3.2 0.00 0.00 0.00 70 1016.7
20260904061534 24 0.0 0.0 0.00 0.00 0.00 73 1016.6
20260904060532 24 0.0 0.0 0.00 0.00 0.00 73 1016.5
20260904055529 23 286 1.6 3.2 0.00 0.00 0.00 75 1016.4
20260904054527 22 0.0 0.0 0.00 0.00 0.00 78 1016.5
20260904053524 22 0.0 0.0 0.00 0.00 0.00 79 1016.5
20260904052522 22 0.0 0.0 0.00 0.00 0.00 78 1016.4
20260904051519 22 0.0 0.0 0.00 0.00 0.00 78 1016.5
20260904050517 22 0.0 3.2 0.00 0.00 0.00 79 1016.4
20260904045614 22 293 1.6 3.2 0.00 0.00 0.00 79 1016.5
20260904044611 22 270 0.0 3.2 0.00 0.00 0.00 80 1016.7
20260904043609 22 225 0.0 3.2 0.00 0.00 0.00 80 1016.6
20260904042606 22 0.0 3.2 0.00 0.00 0.00 80 1016.7
20260904041604 22 304 0.0 3.2 0.00 0.00 0.00 81 1016.7
20260904040601 22 289 1.6 3.2 0.00 0.00 0.00 81 1016.7
20260904035558 22 232 0.0 3.2 0.00 0.00 0.00 81 1017.0
20260904034556 22 228 1.6 3.2 0.00 0.00 0.00 82 1017.0
20260904033553 22 225 1.6 3.2 0.00 0.00 0.00 82 1016.9
20260904032551 22 203 0.0 3.2 0.00 0.00 0.00 83 1017.0
20260904031548 22 68 0.0 3.2 0.00 0.00 0.00 83 1017.1
20260904030545 22 45 0.0 3.2 0.00 0.00 0.00 83 1017.2
20260904025543 22 236 0.0 3.2 0.00 0.00 0.00 83 1017.2
20260904024540 22 237 3.2 6.4 0.00 0.00 0.00 84 1017.3
20260904023538 22 203 1.6 3.2 0.00 0.00 0.00 85 1017.5
20260904022535 22 180 0.0 3.2 0.00 0.00 0.00 84 1017.5
20260904021533 22 233 1.6 3.2 0.00 0.00 0.00 85 1017.5
20260904020530 21 203 1.6 6.4 0.00 0.00 0.00 86 1017.6
20260904015527 22 204 3.2 6.4 0.00 0.00 0.00 86 1017.6
20260904014525 22 225 0.0 3.2 0.00 0.00 0.00 86 1017.8
20260904013522 22 199 3.2 6.4 0.00 0.00 0.00 86 1018.0
20260904012520 21 158 3.2 3.2 0.00 0.00 0.00 86 1017.9
20260904011517 22 209 1.6 3.2 0.00 0.00 0.00 86 1017.9
20260904010615 22 139 1.6 3.2 0.00 0.00 0.00 87 1018.1